Simultaneous Nadir Overpasses (SNOs) Predictions

Prediction of SNOs between AURA and NPP Satellite Orbit:

Table of predicted SNOs for the next 14.0 days since TLE Epoch: 10/29/2016
Index Date (AURA) Time (AURA) Lat,Lon (AURA) SZA (AURA ) Date (NPP) Time (NPP) Lat,Lon (NPP) SZA (NPP ) Distance(km) Time Diff (sec)
1 10/31/2016 10:35:12 79.43, -82.56 105.85 10/31/2016 10:34:35 79.44, -82.44 105.85 2.79 37
2 10/31/2016 11:24:34 -79.63, 86.46 74.42 10/31/2016 11:25:15 -79.62, 86.39 74.43 1.55 41
3 11/03/2016 02:51:37 79.55, 34.12 106.52 11/03/2016 02:51:26 79.56, 34.27 106.50 3.17 11
4 11/03/2016 03:41:00 -79.71,-157.08 73.70 11/03/2016 03:42:07 -79.71,-157.13 73.74 0.99 67
5 11/05/2016 18:18:46 -79.33, -19.15 72.39 11/05/2016 18:17:44 -79.33, -19.08 72.36 1.56 62
6 11/05/2016 19:08:06 79.54, 149.96 107.33 11/05/2016 19:08:22 79.54, 149.88 107.34 1.68 16
7 11/08/2016 10:35:14 -79.35, 96.90 71.65 11/08/2016 10:34:39 -79.35, 96.81 71.60 2.04 35
8 11/08/2016 11:24:31 79.68, -93.19 107.93 11/08/2016 11:25:13 79.68, -93.14 107.89 1.04 42
9 11/11/2016 02:51:38 -79.52,-146.06 71.12 11/11/2016 02:51:29 -79.53,-145.98 71.13 1.89 9




NCC Satellite Simultaneous Nadir Overpasses (SNOs) Prediction Service
